Regional Weather Roundup
Issued by NWS

Home | Current Version | Previous Version | Text Only | Print | Product List | Glossary Off
Versions: 1 2 3 4 5 6 7 8 9 10 11 12 13 14 15 16 17 18 19 20 21 22 23 24 25 26 27 28 29 30 31 32 33 34 35 36 37 38 39 40 41 42 43 44 45 46 47 48 49 50

000
ASUS43 KLSX 110507
RWRMO

WEATHER SUMMARY FOR MISSOURI
NATIONAL WEATHER SERVICE SPRINGFIELD MO
1100 PM CST SUN DEC 10 2017

NOTE: "FAIR" INDICATES FEW OR NO CLOUDS BELOW 12,000 FEET WITH NO
       SIGNIFICANT WEATHER AND/OR OBSTRUCTIONS TO VISIBILITY.
       CURRENT SKY AND/OR WEATHER CONDITIONS ARE NOT AVAILABLE FOR
       CHILLICOTHE AND FARMINGTON.

MOZ001>031-035>038-043-044-053-054-110600-
...NORTHERN AND WESTERN MISSOURI...

CITY           SKY/WX    TMP DP  RH WIND       PRES   REMARKS
KANSAS CTY INT CLEAR     38  23  55 SW9       30.12S
KANSAS C DTWN  CLEAR     35  26  69 CALM      30.13S
LEE`S SUMMIT   CLEAR     42  24  49 SW6       30.14S
ST JOSEPH      CLEAR     25  22  88 CALM      30.11F
CHILLICOTHE      N/A     29  23  78 CALM      30.11F
KIRKSVILLE     CLEAR     27  24  89 SW3       30.09F

$$
MOZ066>068-077>081-088>096-101>105-110600-
...SOUTHWEST MISSOURI...

CITY           SKY/WX    TMP DP  RH WIND       PRES   REMARKS
SPRINGFIELD    CLEAR     39  23  52 SW3       30.16F
JOPLIN         CLEAR     41  24  51 S7        30.19S
BRANSON        PTCLDY    46  23  39 CALM      30.20S

$$
MOZ032>034-039>042-045>050-055>058-069>072-110600-
...CENTRAL MISSOURI...

CITY           SKY/WX    TMP DP  RH WIND       PRES   REMARKS
COLUMBIA       CLEAR     42  25  50 W6        30.13F
JEFFERSON CITY CLEAR     32  24  72 CALM      30.15F
ROLLA          CLEAR     38  26  62 W7        30.14F
SEDALIA        CLEAR     41  27  57 SW9       30.15F
WHITEMAN AFB   CLEAR     34  23  64 SW5       30.10F WCI  30
WARRENSBURG    CLEAR     32  27  80 S5        30.14F WCI  27
OSAGE BEACH    CLEAR     33  24  69 CALM      30.17

$$
MOZ051-052-059>065-110600-
...EAST CENTRAL MISSOURI...

CITY           SKY/WX    TMP DP  RH WIND       PRES   REMARKS
ST LOUIS INTL  CLEAR     35  26  69 CALM      30.14S
SPIRIT OF STL  CLEAR     29  24  82 CALM      30.13S
ST CHARLES     CLEAR     27  20  75 CALM      30.14S

$$
MOZ072>076-082>087-097>100-106>115-110600-
...SOUTH CENTRAL AND SOUTHEAST MISSOURI...

CITY           SKY/WX    TMP DP  RH WIND       PRES   REMARKS
CAPE GIRARDEAU CLEAR     29  27  92 CALM      30.16R
FARMINGTON     CLEAR     44  26  49 NW6       30.14S
POPLAR BLUFF   CLEAR     33  28  81 SW3       30.16S
WEST PLAINS    CLEAR     38  24  57 W5        30.17F

$$



USA.gov is the U.S. government's official web portal to all federal, state and local government web resources and services.